Chanute, KS

5:34 AM CST on February 21, 2018 (GMT -0600)
Chanute Martin Johnson

Weather History for KCNU - February, 2014

Change the Weather History Date:

Saturday, February 22, 2014

  Actual Average Record
Temperature  
Mean Temperature 45 °F 40 °F  
Max Temperature 61 °F 50 °F 82 °F (2017)
Min Temperature 29 °F 29 °F 8 °F (1912)
Degree Days  
Heating Degree Days 20 25  
Month to date heating degree days 775 628  
Since 1 July heating degree days 3814 3427  
Cooling Degree Days 0 0  
Month to date cooling degree days 0 0  
Year to date cooling degree days 0 0  
Moisture  
Dew Point 26 °F    
Average Humidity 53    
Maximum Humidity 76    
Minimum Humidity 29    
Precipitation  
Precipitation 0.00 in 0.08 in 1.76 in (1915)
Month to date precipitation T 1.42  
Year to date precipitation 0.11 2.68  
Sea Level Pressure  
Sea Level Pressure 29.92 in    
Wind  
Wind Speed 9 mph (SE)    
Max Wind Speed 20 mph    
Max Gust Speed 26 mph    
Visibility 10 miles    
Events      
T = Trace of Precipitation, MM = Missing Value Source: NWS Daily Summary

Daily Weather History Graph

Daily Weather History Graph

Search for Another Location

Airport or City:

Trip Planner

Search our weather history database for the weather conditions in past years. The results will help you decide how hot, cold, wet, or windy it might be!

Date:

Astronomy

Feb. 22, 2014 Rise Set
Actual Time 7:02 AM CST 6:08 PM CST
Civil Twilight 6:36 AM CST 6:35 PM CST
Nautical Twilight 6:05 AM CST 7:05 PM CST
Astronomical Twilight 5:35 AM CST 7:35 PM CST
Moon 12:56 AM CST (2/22) 11:23 AM CST (2/22)
Length of Visible Light 11h 58m
Length of Day
11h 05m
Waning Gibbous, 50% of the Moon is Illuminated
Feb 22
Waning Gibbous
Mar 1
New
Mar 8
First Quarter
Mar 16
Full
Mar 23
Last Quarter

Hourly Weather History & Observations

Time (CST) Temp. Windchill Dew Point Humidity Pressure Visibility Wind Dir Wind Speed Gust Speed Precip Events Conditions
12:52 AM 34.0 °F 27.2 °F 19.9 °F 56% 29.95 in 10.0 mi South 8.1 mph - N/A   Clear
1:52 AM 36.0 °F 33.3 °F 19.0 °F 50% 29.95 in 10.0 mi SSW 3.5 mph - N/A   Clear
2:52 AM 34.0 °F 26.0 °F 21.9 °F 61% 29.93 in 10.0 mi South 10.4 mph - N/A   Clear
3:52 AM 35.1 °F 27.4 °F 21.0 °F 57% 29.91 in 10.0 mi South 10.4 mph - N/A   Clear
4:52 AM 35.1 °F 27.4 °F 21.9 °F 59% 29.91 in 10.0 mi SSE 10.4 mph - N/A   Clear
5:52 AM 34.0 °F 26.6 °F 23.0 °F 64% 29.92 in 10.0 mi SSE 9.2 mph - N/A   Clear
6:52 AM 36.0 °F 28.5 °F 24.1 °F 62% 29.91 in 10.0 mi SSE 10.4 mph - N/A   Clear
7:52 AM 36.0 °F 31.1 °F 25.0 °F 64% 29.91 in 10.0 mi SSE 5.8 mph - N/A   Clear
8:52 AM 46.9 °F - 27.0 °F 46% 29.91 in 10.0 mi South 12.7 mph - N/A   Clear
9:52 AM 50.0 °F - 27.0 °F 41% 29.94 in 10.0 mi SSW 10.4 mph - N/A   Clear
10:52 AM 52.0 °F - 27.0 °F 38% 29.93 in 10.0 mi West 10.4 mph - N/A   Clear
11:52 AM 54.0 °F - 28.0 °F 37% 29.91 in 10.0 mi West 6.9 mph - N/A   Clear
12:52 PM 54.0 °F - 28.9 °F 38% 29.89 in 10.0 mi Variable 5.8 mph - N/A   Clear
1:52 PM 57.0 °F - 28.9 °F 34% 29.86 in 10.0 mi WSW 4.6 mph - N/A   Clear
2:52 PM 59.0 °F - 28.9 °F 32% 29.86 in 10.0 mi Variable 4.6 mph - N/A   Clear
3:52 PM 59.0 °F - 28.0 °F 31% 29.86 in 10.0 mi East 4.6 mph - N/A   Clear
4:52 PM 60.1 °F - 28.9 °F 31% 29.86 in 10.0 mi NNE 8.1 mph - N/A   Clear
5:52 PM 54.0 °F - 28.9 °F 38% 29.88 in 10.0 mi North 11.5 mph - N/A   Clear
6:52 PM 50.0 °F - 27.0 °F 41% 29.91 in 10.0 mi NNE 6.9 mph - N/A   Clear
7:52 PM 46.9 °F - 25.0 °F 42% 29.95 in 10.0 mi NE 9.2 mph - N/A   Clear
8:52 PM 44.1 °F 39.0 °F 27.0 °F 51% 29.96 in 10.0 mi ENE 9.2 mph - N/A   Clear
9:52 PM 43.0 °F 35.4 °F 30.9 °F 62% 29.97 in 10.0 mi NE 16.1 mph 23.0 mph N/A   Clear
10:52 PM 37.9 °F 28.5 °F 30.0 °F 73% 29.96 in 10.0 mi ENE 17.3 mph 25.3 mph N/A   Clear
11:52 PM 36.0 °F 27.1 °F 28.0 °F 73% 29.98 in 10.0 mi NE 13.8 mph - N/A   Clear